sat.trackr.live / text

‹ back to catalog

KSM1-C

NORAD 46906 · 2020-081B

PAYLOAD ACTIVE UNKNOWN

§ Identity

Operator
Country
LUXE
Launch date
2020-11-07
Launch site
SRILR
Launch vehicle
Mass (kg)
RCS (m²)

External: N2YO · Heavens-Above · Gunter

§ Orbital elements

Epoch: 2026-05-25T04:50:51.838368Z

Period
94.34 min
Inclination
36.8932°
Eccentricity
0.0001605
Mean motion
15.26313328 rev/d
Perigee alt
485.7 km
Apogee alt
487.9 km
Semi-major
6,865.0 km
B*
2.9428e-4
RAAN
200.8034°
Arg perigee
336.3123°
Mean anomaly
23.7552°
Rev number
30,565

§ Raw data

KSM1-C1 46906U 20081B   26145.20198887  .00007729  00000+0  29428-3 0  99992 46906  36.8932 200.8034 0001605 336.3123  23.7552 15.26313328305655

JSON: /api/v1/satellites/46906 · /tle

For live sub-satellite position, see the globe view (requires WebGL).

§ Visibility from observer

Set your observer location to see the next 7 days of passes ≥ 10°. The values pass through the URL so the page stays shareable.

No JS? Fill the form by hand. The geolocation button needs JavaScript.

§ Radio — SatNOGS DB

ModeDescriptionDownlinkUplink
FSK AX.100 Mode 5 Mode U 401.120 MHz

1 transmitter · refreshed weekly from db.satnogs.org